Rush City, MN

1:53 PM CDT on July 27, 2017 (GMT -0500)
Rush City Regional

Weather History for KROS - May, 2013

Change the Weather History Date:

Saturday, May 25, 2013

  Actual Average (KCBG) Record (KCBG)
Temperature  
Mean Temperature 58 °F -  
Max Temperature 64 °F 70 °F 93 °F (1978)
Min Temperature 51 °F 47 °F 33 °F (1969)
Degree Days  
Heating Degree Days 8    
Growing Degree Days 8 (Base 50)    
Moisture  
Dew Point 47 °F    
Average Humidity 71    
Maximum Humidity 93    
Minimum Humidity 51    
Precipitation  
Precipitation 0.02 in - - ()
Sea Level Pressure  
Sea Level Pressure 30.26 in    
Wind  
Wind Speed 6 mph (SE)    
Max Wind Speed 15 mph    
Max Gust Speed 22 mph    
Visibility 10 miles    
Events Rain    
Averages and records for this station are not official NWS values.
T = Trace of Precipitation, MM = Missing Value Source: NWS Daily Summary

Daily Weather History Graph

Daily Weather History Graph

Search for Another Location

Airport or City:

Trip Planner

Search our weather history database for the weather conditions in past years. The results will help you decide how hot, cold, wet, or windy it might be!

Date:

Astronomy

May. 25, 2013 Rise Set
Actual Time 5:30 AM CDT 8:47 PM CDT
Civil Twilight 4:54 AM CDT 9:24 PM CDT
Nautical Twilight 4:07 AM CDT 10:11 PM CDT
Astronomical Twilight 3:08 AM CDT 11:11 PM CDT
Moon 9:35 PM CDT (5/25) 5:58 AM CDT (5/25)
Length of Visible Light 16h 29m
Length of Day
15h 17m
Full, 100% of the Moon is Illuminated
May 25
Full
May 31
Last Quarter
Jun 8
New
Jun 16
First Quarter
Jun 23
Full

Hourly Weather History & Observations

Time (CDT) Temp. Dew Point Humidity Pressure Visibility Wind Dir Wind Speed Gust Speed Precip Events Conditions
12:16 AM 54.7 °F 46.6 °F 74% 30.27 in 10.0 mi SSW 3.5 mph - N/A   Overcast
12:36 AM 53.6 °F 47.5 °F 80% 30.27 in 10.0 mi South 3.5 mph - N/A   Overcast
12:55 AM 52.9 °F 48.2 °F 84% 30.27 in 10.0 mi South 4.6 mph - N/A   Overcast
1:15 AM 52.7 °F 48.4 °F 85% 30.26 in 10.0 mi South 3.5 mph - N/A Rain Light Rain
1:36 AM 52.7 °F 48.6 °F 86% 30.27 in 10.0 mi South 4.6 mph - 0.02 in   Overcast
1:55 AM 52.3 °F 49.1 °F 89% 30.26 in 10.0 mi South 6.9 mph - 0.02 in   Overcast
2:15 AM 52.3 °F 49.1 °F 89% 30.26 in 10.0 mi South 6.9 mph - N/A   Overcast
2:35 AM 52.3 °F 49.1 °F 89% 30.25 in 10.0 mi South 4.6 mph - N/A   Overcast
2:55 AM 52.2 °F 49.1 °F 89% 30.25 in 10.0 mi South 6.9 mph - N/A   Overcast
3:16 AM 52.2 °F 49.1 °F 89% 30.24 in 10.0 mi SSE 5.8 mph - N/A   Overcast
3:35 AM 52.0 °F 48.7 °F 89% 30.24 in 10.0 mi SE 5.8 mph - N/A   Overcast
3:55 AM 52.0 °F 48.7 °F 89% 30.25 in 10.0 mi South 4.6 mph - N/A   Overcast
4:16 AM 51.8 °F 48.7 °F 89% 30.26 in 10.0 mi Calm Calm - N/A   Overcast
4:35 AM 51.8 °F 49.1 °F 90% 30.26 in 10.0 mi SE 3.5 mph - N/A   Overcast
4:55 AM 51.6 °F 49.1 °F 91% 30.27 in 10.0 mi SSE 4.6 mph - N/A   Overcast
5:16 AM 51.6 °F 49.1 °F 91% 30.28 in 10.0 mi ESE 3.5 mph - N/A   Overcast
5:35 AM 51.8 °F 49.1 °F 90% 30.27 in 10.0 mi SE 3.5 mph - N/A   Overcast
5:55 AM 51.4 °F 49.3 °F 92% 30.28 in 10.0 mi Calm Calm - N/A   Overcast
6:16 AM 51.3 °F 49.3 °F 93% 30.28 in 10.0 mi East 3.5 mph - N/A   Overcast
6:35 AM 51.8 °F 49.3 °F 91% 30.26 in 10.0 mi East 5.8 mph - N/A   Overcast
6:55 AM 52.2 °F 49.3 °F 90% 30.27 in 10.0 mi East 5.8 mph - N/A   Overcast
7:16 AM 52.7 °F 48.6 °F 86% 30.28 in 10.0 mi SE 6.9 mph - N/A   Overcast
7:35 AM 52.9 °F 48.4 °F 85% 30.27 in 10.0 mi ESE 5.8 mph - N/A   Overcast
7:55 AM 53.4 °F 48.7 °F 84% 30.27 in 10.0 mi East 5.8 mph - N/A   Overcast
8:16 AM 53.8 °F 49.3 °F 85% 30.27 in 10.0 mi East 4.6 mph - N/A   Overcast
8:35 AM 54.5 °F 49.3 °F 83% 30.27 in 10.0 mi ESE 5.8 mph - N/A   Overcast
8:56 AM 55.4 °F 49.1 °F 79% 30.27 in 10.0 mi East 6.9 mph - N/A   Overcast
9:16 AM 55.6 °F 48.7 °F 78% 30.27 in 10.0 mi ESE 9.2 mph - N/A   Overcast
9:35 AM 56.3 °F 48.0 °F 74% 30.27 in 10.0 mi ESE 11.5 mph - N/A   Overcast
9:56 AM 56.7 °F 47.7 °F 72% 30.27 in 10.0 mi ESE 10.4 mph - N/A   Overcast
10:16 AM 57.6 °F 47.8 °F 70% 30.27 in 10.0 mi ESE 8.1 mph - N/A   Overcast
10:35 AM 58.5 °F 47.5 °F 67% 30.27 in 10.0 mi SE 13.8 mph - N/A   Overcast
10:56 AM 59.7 °F 47.7 °F 64% 30.26 in 10.0 mi SE 9.2 mph 16.1 mph N/A   Overcast
11:16 AM 61.0 °F 46.8 °F 59% 30.26 in 10.0 mi SE 12.7 mph - N/A   Overcast
11:35 AM 61.0 °F 46.4 °F 59% 30.27 in 10.0 mi SE 10.4 mph 17.3 mph N/A   Overcast
11:56 AM 63.1 °F 46.9 °F 55% 30.27 in 10.0 mi SSE 15.0 mph - N/A   Mostly Cloudy
12:16 PM 61.7 °F 46.0 °F 56% 30.28 in 10.0 mi SSE 11.5 mph 17.3 mph N/A   Mostly Cloudy
12:35 PM 61.9 °F 46.6 °F 57% 30.27 in 10.0 mi ESE 8.1 mph 16.1 mph N/A   Overcast
12:56 PM 63.9 °F 46.6 °F 53% 30.27 in 10.0 mi SE 11.5 mph 18.4 mph N/A   Mostly Cloudy
1:16 PM 64.6 °F 46.2 °F 51% 30.26 in 10.0 mi SSE 15.0 mph 21.9 mph N/A   Overcast
1:35 PM 63.7 °F 45.5 °F 52% 30.26 in 10.0 mi SE 11.5 mph - N/A   Overcast
1:56 PM 62.4 °F 46.2 °F 55% 30.26 in 10.0 mi SE 12.7 mph 19.6 mph N/A   Overcast
2:15 PM 62.6 °F 47.5 °F 58% 30.26 in 10.0 mi SSE 12.7 mph 18.4 mph N/A   Overcast
2:36 PM 61.9 °F 47.1 °F 58% 30.26 in 10.0 mi ESE 12.7 mph 18.4 mph N/A   Overcast
2:55 PM 61.3 °F 47.3 °F 60% 30.26 in 10.0 mi ESE 8.1 mph 18.4 mph N/A   Overcast
3:16 PM 61.7 °F 47.7 °F 60% 30.27 in 10.0 mi SE 10.4 mph - N/A   Overcast
3:35 PM 62.6 °F 47.3 °F 57% 30.26 in 10.0 mi SE 9.2 mph - N/A   Overcast
3:56 PM 62.2 °F 46.4 °F 56% 30.26 in 10.0 mi SSE 11.5 mph 19.6 mph N/A   Overcast
4:16 PM 62.2 °F 46.2 °F 56% 30.26 in 10.0 mi SE 10.4 mph 17.3 mph N/A   Overcast
4:35 PM 61.9 °F 46.6 °F 57% 30.26 in 10.0 mi SE 10.4 mph 19.6 mph N/A   Overcast
4:55 PM 62.8 °F 46.9 °F 56% 30.26 in 10.0 mi SSE 8.1 mph - N/A   Overcast
5:16 PM 61.7 °F 46.9 °F 58% 30.26 in 10.0 mi SE 6.9 mph - N/A   Overcast
5:35 PM 61.9 °F 46.9 °F 58% 30.25 in 10.0 mi SE 9.2 mph - N/A   Overcast
5:56 PM 61.7 °F 47.1 °F 59% 30.25 in 10.0 mi ESE 11.5 mph - N/A   Mostly Cloudy
6:15 PM 61.5 °F 46.6 °F 58% 30.25 in 10.0 mi SE 8.1 mph - N/A   Overcast
6:36 PM 60.8 °F 45.9 °F 58% 30.24 in 10.0 mi SE 9.2 mph - N/A   Mostly Cloudy
6:56 PM 60.8 °F 45.9 °F 58% 30.24 in 10.0 mi SE 9.2 mph - N/A   Mostly Cloudy
7:15 PM 60.1 °F 45.7 °F 59% 30.24 in 10.0 mi SSE 9.2 mph - N/A   Mostly Cloudy
7:36 PM 59.9 °F 45.7 °F 59% 30.25 in 10.0 mi SE 9.2 mph - N/A   Overcast
7:56 PM 59.9 °F 46.2 °F 61% 30.25 in 10.0 mi SE 5.8 mph - N/A   Overcast
8:15 PM 59.2 °F 45.7 °F 61% 30.25 in 10.0 mi SE 8.1 mph - N/A   Overcast
8:36 PM 57.9 °F 44.8 °F 62% 30.24 in 10.0 mi SE 5.8 mph - N/A   Overcast
8:55 PM 56.8 °F 44.8 °F 64% 30.24 in 10.0 mi ESE 3.5 mph - N/A   Overcast
9:15 PM 56.3 °F 44.6 °F 65% 30.26 in 10.0 mi ESE 4.6 mph - N/A   Overcast
9:36 PM 55.4 °F 44.6 °F 67% 30.26 in 10.0 mi SE 4.6 mph - N/A   Overcast
9:55 PM 54.9 °F 44.2 °F 67% 30.26 in 10.0 mi ESE 3.5 mph - N/A   Overcast
10:15 PM 54.9 °F 44.1 °F 67% 30.26 in 10.0 mi ESE 4.6 mph - N/A   Overcast
10:36 PM 54.7 °F 44.1 °F 67% 30.26 in 10.0 mi Calm Calm - N/A   Overcast
10:55 PM 54.5 °F 44.2 °F 68% 30.26 in 10.0 mi SE 3.5 mph - N/A   Overcast
11:15 PM 54.0 °F 44.4 °F 70% 30.26 in 10.0 mi Calm Calm - N/A   Overcast
11:36 PM 54.1 °F 44.2 °F 69% 30.26 in 10.0 mi Calm Calm - N/A   Overcast
11:55 PM 53.8 °F 43.9 °F 69% 30.26 in 10.0 mi Calm Calm - N/A   Overcast